Location: Claflin County Park
(44.8478°N, 87.5507°W)
Time: 02:26:09
(UTC+00:00)

ATLAS 3B R/B - Pass Details

Date: 10 December 2025
Orbit: 936 x 1258 km, 63.8° (Epoch: 12 January)

Event Time Altitude Azimuth Distance (km) Brightness Sun altitude
Exits shadow 11:23:22 12° 333° (NNW) 3,103 4.7 -19.3°
Maximum altitude 11:29:32 29° 29° (NNE) 2,096 4.3 -18.3°
Drops below altitude 10° 11:36:03 10° 87° (E) 3,149 6.3 -17.2°
Sets 11:39:12 0° 99° (E) 4,069 7.5 -16.6°
